Time,TemperatureF,DewpointF,PressureIn,WindDirection,WindDirectionDegrees,WindSpeedMPH,WindSpeedGustMPH,Humidity,HourlyPrecipIn,Conditions,Clouds,dailyrainin,SoftwareType,DateUTC
2013-03-07 00:02:00,53.6,41.4,30.12,NNE,20,4.0,17.0,63,0.00,,,0.02,meteohub,2013-03-07 05:02:00,
2013-03-07 00:07:00,53.4,41.2,30.12,North,355,7.0,17.0,63,0.00,,,0.00,meteohub,2013-03-07 05:07:00,
2013-03-07 00:12:00,53.2,41.4,30.12,NNW,342,6.0,13.0,64,0.00,,,0.00,meteohub,2013-03-07 05:12:00,
2013-03-07 00:17:00,53.1,41.2,30.12,North,5,11.0,13.0,64,0.00,,,0.00,meteohub,2013-03-07 05:17:00,
2013-03-07 00:22:00,52.9,40.6,30.12,North,9,10.0,13.0,63,0.00,,,0.00,meteohub,2013-03-07 05:22:00,
2013-03-07 00:32:00,52.5,40.3,30.12,NNW,329,5.0,13.0,63,0.00,,,0.00,meteohub,2013-03-07 05:32:00,
2013-03-07 00:37:00,52.3,40.5,30.12,North,355,3.0,12.0,64,0.00,,,0.00,meteohub,2013-03-07 05:37:00,
2013-03-07 00:47:00,52.2,39.9,30.12,NNE,21,8.0,11.0,63,0.00,,,0.00,meteohub,2013-03-07 05:47:00,
2013-03-07 00:52:00,52.2,40.3,30.12,NNE,19,4.0,12.0,64,0.00,,,0.00,meteohub,2013-03-07 05:52:00,
2013-03-07 00:57:00,52.0,40.1,30.12,North,9,6.0,12.0,64,0.00,,,0.00,meteohub,2013-03-07 05:57:00,
2013-03-07 01:02:00,51.8,40.5,30.13,NNE,22,2.0,12.0,65,0.00,,,0.00,meteohub,2013-03-07 06:02:00,
2013-03-07 01:07:00,51.6,40.3,30.12,NNE,13,3.0,9.0,65,0.00,,,0.00,meteohub,2013-03-07 06:07:00,
2013-03-07 01:17:00,51.3,40.3,30.13,NNE,30,2.0,10.0,66,0.00,,,0.00,meteohub,2013-03-07 06:17:00,
2013-03-07 01:22:00,51.1,40.5,30.13,North,5,1.0,10.0,67,0.00,,,0.00,meteohub,2013-03-07 06:22:00,
2013-03-07 01:27:00,51.1,40.8,30.13,NNE,22,2.0,10.0,68,0.00,,,0.00,meteohub,2013-03-07 06:27:00,
2013-03-07 01:32:00,50.5,39.9,30.13,NNE,22,0.0,6.0,67,0.00,,,0.00,meteohub,2013-03-07 06:32:00,
2013-03-07 01:37:00,50.0,39.6,30.14,NNE,22,2.0,6.0,67,0.00,,,0.00,meteohub,2013-03-07 06:37:00,
2013-03-07 01:42:00,49.6,39.9,30.13,NNE,23,2.0,4.0,69,0.00,,,0.00,meteohub,2013-03-07 06:42:00,
2013-03-07 01:47:00,49.5,39.7,30.13,NNE,23,1.0,5.0,69,0.00,,,0.00,meteohub,2013-03-07 06:47:00,
2013-03-07 01:52:00,48.9,39.2,30.13,NNE,23,1.0,5.0,69,0.00,,,0.00,meteohub,2013-03-07 06:52:00,
2013-03-07 02:02:00,48.6,39.6,30.13,NNE,23,0.0,5.0,71,0.00,,,0.00,meteohub,2013-03-07 07:02:00,
2013-03-07 02:07:00,48.4,39.4,30.13,NNE,23,1.0,5.0,71,0.00,,,0.00,meteohub,2013-03-07 07:07:00,
2013-03-07 02:12:00,48.0,39.0,30.13,NNE,23,0.0,5.0,71,0.00,,,0.00,meteohub,2013-03-07 07:12:00,
2013-03-07 02:17:00,47.8,39.2,30.13,NNE,23,1.0,4.0,72,0.00,,,0.00,meteohub,2013-03-07 07:17:00,
2013-03-07 02:22:00,47.7,39.0,30.13,NNE,23,1.0,3.0,72,0.00,,,0.00,meteohub,2013-03-07 07:22:00,
2013-03-07 02:27:00,47.5,39.2,30.13,NNE,23,0.0,4.0,73,0.00,,,0.00,meteohub,2013-03-07 07:27:00,
2013-03-07 02:32:00,47.1,38.8,30.13,NNE,23,3.0,4.0,73,0.00,,,0.00,meteohub,2013-03-07 07:32:00,
2013-03-07 02:42:00,46.9,38.7,30.12,NNE,24,0.0,5.0,73,0.00,,,0.00,meteohub,2013-03-07 07:42:00,
2013-03-07 02:47:00,46.8,38.8,30.12,NNE,26,6.0,6.0,74,0.00,,,0.00,meteohub,2013-03-07 07:47:00,
2013-03-07 02:52:00,46.8,38.8,30.12,NNE,27,4.0,6.0,74,0.00,,,0.00,meteohub,2013-03-07 07:52:00,
2013-03-07 03:02:00,46.2,38.5,30.12,NNE,27,3.0,6.0,74,0.00,,,0.00,meteohub,2013-03-07 08:02:00,
2013-03-07 03:07:00,46.0,38.3,30.12,NNE,27,0.0,6.0,74,0.00,,,0.00,meteohub,2013-03-07 08:07:00,
2013-03-07 03:12:00,45.9,38.3,30.12,NNE,27,3.0,4.0,75,0.00,,,0.00,meteohub,2013-03-07 08:12:00,
2013-03-07 03:17:00,45.9,38.3,30.12,NNE,27,3.0,4.0,75,0.00,,,0.00,meteohub,2013-03-07 08:17:00,
2013-03-07 03:22:00,45.7,37.9,30.12,NNE,27,3.0,4.0,74,0.00,,,0.00,meteohub,2013-03-07 08:22:00,
2013-03-07 03:27:00,45.7,38.3,30.12,NNE,26,2.0,4.0,75,0.00,,,0.00,meteohub,2013-03-07 08:27:00,
2013-03-07 03:32:00,45.7,38.3,30.12,NNE,21,2.0,5.0,75,0.00,,,0.00,meteohub,2013-03-07 08:32:00,
2013-03-07 03:37:00,45.7,38.3,30.12,NNE,13,2.0,5.0,75,0.00,,,0.00,meteohub,2013-03-07 08:37:00,
2013-03-07 03:47:00,45.5,38.1,30.12,North,10,1.0,5.0,75,0.00,,,0.00,meteohub,2013-03-07 08:47:00,
2013-03-07 03:52:00,45.3,38.1,30.12,North,11,2.0,5.0,76,0.00,,,0.00,meteohub,2013-03-07 08:52:00,
2013-03-07 03:57:00,45.3,37.9,30.12,North,10,3.0,5.0,75,0.00,,,0.00,meteohub,2013-03-07 08:57:00,
2013-03-07 04:02:00,45.1,37.4,30.13,North,9,3.0,5.0,74,0.00,,,0.00,meteohub,2013-03-07 09:02:00,
2013-03-07 04:07:00,45.1,37.8,30.13,North,5,4.0,5.0,75,0.00,,,0.00,meteohub,2013-03-07 09:07:00,
2013-03-07 04:12:00,45.1,37.8,30.13,North,5,3.0,5.0,75,0.00,,,0.00,meteohub,2013-03-07 09:12:00,
2013-03-07 04:17:00,45.1,37.4,30.12,North,355,3.0,7.0,74,0.00,,,0.00,meteohub,2013-03-07 09:17:00,
2013-03-07 04:22:00,45.3,37.9,30.12,North,5,4.0,7.0,75,0.00,,,0.00,meteohub,2013-03-07 09:22:00,
2013-03-07 04:27:00,45.1,37.0,30.13,NNW,346,10.0,10.0,73,0.00,,,0.00,meteohub,2013-03-07 09:27:00,
2013-03-07 04:37:00,45.3,36.9,30.13,North,0,4.0,10.0,72,0.00,,,0.00,meteohub,2013-03-07 09:37:00,
2013-03-07 04:47:00,45.1,36.7,30.13,North,5,4.0,9.0,72,0.00,,,0.00,meteohub,2013-03-07 09:47:00,
2013-03-07 04:52:00,45.1,36.7,30.13,NNE,18,1.0,9.0,72,0.00,,,0.00,meteohub,2013-03-07 09:52:00,
2013-03-07 05:02:00,45.1,36.3,30.13,NNE,22,4.0,10.0,71,0.00,,,0.00,meteohub,2013-03-07 10:02:00,
2013-03-07 05:12:00,45.0,36.1,30.13,NNE,19,2.0,10.0,71,0.00,,,0.00,meteohub,2013-03-07 10:12:00,
2013-03-07 05:17:00,45.0,36.5,30.13,NNE,28,5.0,11.0,72,0.00,,,0.00,meteohub,2013-03-07 10:17:00,
2013-03-07 05:22:00,45.1,36.7,30.14,NNE,15,3.0,11.0,72,0.00,,,0.00,meteohub,2013-03-07 10:22:00,
2013-03-07 05:27:00,45.0,36.1,30.14,NE,40,5.0,9.0,71,0.00,,,0.00,meteohub,2013-03-07 10:27:00,
2013-03-07 05:32:00,44.8,36.3,30.14,NNE,25,3.0,8.0,72,0.00,,,0.00,meteohub,2013-03-07 10:32:00,
2013-03-07 05:42:00,44.8,36.0,30.14,North,11,3.0,8.0,71,0.00,,,0.00,meteohub,2013-03-07 10:42:00,
2013-03-07 05:47:00,44.8,36.0,30.15,NNE,13,7.0,9.0,71,0.00,,,0.00,meteohub,2013-03-07 10:47:00,
2013-03-07 05:52:00,44.8,36.0,30.15,North,5,4.0,9.0,71,0.00,,,0.00,meteohub,2013-03-07 10:52:00,
2013-03-07 06:02:00,44.6,35.8,30.16,North,350,3.0,11.0,71,0.00,,,0.00,meteohub,2013-03-07 11:02:00,
2013-03-07 06:12:00,44.4,35.6,30.16,North,355,4.0,9.0,71,0.00,,,0.00,meteohub,2013-03-07 11:12:00,
2013-03-07 06:17:00,44.2,35.8,30.16,NE,34,8.0,8.0,72,0.00,,,0.00,meteohub,2013-03-07 11:17:00,
2013-03-07 06:27:00,44.2,35.4,30.16,North,0,4.0,9.0,71,0.00,,,0.00,meteohub,2013-03-07 11:27:00,
2013-03-07 06:32:00,44.1,35.2,30.16,North,0,4.0,10.0,71,0.00,,,0.00,meteohub,2013-03-07 11:32:00,
2013-03-07 06:37:00,43.9,35.1,30.16,NNW,344,7.0,10.0,71,0.00,,,0.00,meteohub,2013-03-07 11:37:00,
2013-03-07 06:42:00,43.9,35.4,30.16,NNE,30,6.0,11.0,72,0.00,,,0.00,meteohub,2013-03-07 11:42:00,
2013-03-07 06:47:00,43.5,35.1,30.16,NE,34,5.0,11.0,72,0.00,,,0.00,meteohub,2013-03-07 11:47:00,
2013-03-07 06:57:00,43.3,35.6,30.16,NNE,16,5.0,10.0,74,0.00,,,0.00,meteohub,2013-03-07 11:57:00,
2013-03-07 07:02:00,43.3,35.2,30.17,NE,34,2.0,9.0,73,0.00,,,0.00,meteohub,2013-03-07 12:02:00,
2013-03-07 07:07:00,43.3,35.2,30.17,North,5,3.0,8.0,73,0.00,,,0.00,meteohub,2013-03-07 12:07:00,
2013-03-07 07:17:00,43.5,35.4,30.17,NNE,17,3.0,8.0,73,0.00,,,0.00,meteohub,2013-03-07 12:17:00,
2013-03-07 07:22:00,43.5,35.4,30.17,North,5,3.0,9.0,73,0.00,,,0.00,meteohub,2013-03-07 12:22:00,
2013-03-07 07:27:00,43.5,35.1,30.18,NNE,19,3.0,9.0,72,0.00,,,0.00,meteohub,2013-03-07 12:27:00,
2013-03-07 07:32:00,43.7,34.9,30.18,North,0,4.0,9.0,71,0.00,,,0.00,meteohub,2013-03-07 12:32:00,
2013-03-07 07:37:00,43.9,35.1,30.18,NE,45,2.0,9.0,71,0.00,,,0.00,meteohub,2013-03-07 12:37:00,
2013-03-07 07:42:00,44.1,35.2,30.18,North,350,4.0,9.0,71,0.00,,,0.00,meteohub,2013-03-07 12:42:00,
2013-03-07 07:52:00,44.4,35.2,30.18,NE,44,5.0,12.0,70,0.00,,,0.00,meteohub,2013-03-07 12:52:00,
2013-03-07 08:02:00,45.1,36.0,30.19,NNE,22,2.0,12.0,70,0.00,,,0.00,meteohub,2013-03-07 13:02:00,
2013-03-07 08:07:00,45.1,35.2,30.19,NE,42,6.0,10.0,68,0.00,,,0.00,meteohub,2013-03-07 13:07:00,
2013-03-07 08:12:00,45.3,35.4,30.19,NNE,21,2.0,12.0,68,0.00,,,0.00,meteohub,2013-03-07 13:12:00,
2013-03-07 08:17:00,45.7,35.4,30.19,NNE,31,10.0,12.0,67,0.00,,,0.00,meteohub,2013-03-07 13:17:00,
2013-03-07 08:22:00,45.7,35.4,30.19,NNE,26,9.0,13.0,67,0.00,,,0.00,meteohub,2013-03-07 13:22:00,
2013-03-07 08:27:00,45.9,35.6,30.19,North,11,8.0,13.0,67,0.00,,,0.00,meteohub,2013-03-07 13:27:00,
2013-03-07 08:32:00,46.0,35.2,30.19,NE,46,6.0,13.0,66,0.00,,,0.00,meteohub,2013-03-07 13:32:00,
2013-03-07 08:37:00,46.4,36.0,30.19,NE,46,6.0,12.0,67,0.00,,,0.00,meteohub,2013-03-07 13:37:00,
2013-03-07 08:42:00,46.9,35.8,30.19,NNE,26,7.0,12.0,65,0.00,,,0.00,meteohub,2013-03-07 13:42:00,
2013-03-07 08:47:00,47.1,35.6,30.19,NE,46,8.0,12.0,64,0.00,,,0.00,meteohub,2013-03-07 13:47:00,
2013-03-07 08:52:00,47.7,36.1,30.19,NNW,338,10.0,11.0,64,0.00,,,0.00,meteohub,2013-03-07 13:52:00,
2013-03-07 08:57:00,47.5,35.1,30.19,North,5,10.0,11.0,62,0.00,,,0.00,meteohub,2013-03-07 13:57:00,
2013-03-07 09:02:00,47.5,35.1,30.19,NNE,26,9.0,14.0,62,0.00,,,0.00,meteohub,2013-03-07 14:02:00,
2013-03-07 09:07:00,47.7,35.2,30.19,North,355,8.0,14.0,62,0.00,,,0.00,meteohub,2013-03-07 14:07:00,
2013-03-07 09:12:00,48.0,35.6,30.20,North,11,5.0,14.0,62,0.00,,,0.00,meteohub,2013-03-07 14:12:00,
2013-03-07 09:17:00,48.6,35.8,30.20,NNE,15,9.0,13.0,61,0.00,,,0.00,meteohub,2013-03-07 14:17:00,
2013-03-07 09:27:00,49.5,35.2,30.20,NNW,333,1.0,13.0,58,0.00,,,0.00,meteohub,2013-03-07 14:27:00,
2013-03-07 09:32:00,50.0,36.3,30.20,NNE,25,3.0,13.0,59,0.00,,,0.00,meteohub,2013-03-07 14:32:00,
2013-03-07 09:37:00,50.0,34.9,30.20,NNE,22,9.0,13.0,56,0.00,,,0.00,meteohub,2013-03-07 14:37:00,
2013-03-07 09:42:00,50.0,35.4,30.20,NNW,345,7.0,11.0,57,0.00,,,0.00,meteohub,2013-03-07 14:42:00,
2013-03-07 09:47:00,50.5,36.3,30.20,NE,39,8.0,12.0,58,0.00,,,0.00,meteohub,2013-03-07 14:47:00,
2013-03-07 09:57:00,50.7,35.6,30.20,North,0,6.0,12.0,56,0.00,,,0.00,meteohub,2013-03-07 14:57:00,
2013-03-07 10:02:00,50.9,35.2,30.20,North,5,7.0,14.0,55,0.00,,,0.00,meteohub,2013-03-07 15:02:00,
2013-03-07 10:07:00,51.1,36.0,30.20,NNE,27,11.0,14.0,56,0.00,,,0.00,meteohub,2013-03-07 15:07:00,
2013-03-07 10:12:00,51.4,35.8,30.20,NNW,345,6.0,14.0,55,0.00,,,0.00,meteohub,2013-03-07 15:12:00,
2013-03-07 10:22:00,51.8,35.2,30.21,NNE,22,6.0,14.0,53,0.00,,,0.00,meteohub,2013-03-07 15:22:00,
2013-03-07 10:27:00,52.2,36.0,30.21,North,5,12.0,12.0,54,0.00,,,0.00,meteohub,2013-03-07 15:27:00,
2013-03-07 10:37:00,52.7,35.6,30.21,North,355,6.0,12.0,52,0.00,,,0.00,meteohub,2013-03-07 15:37:00,
2013-03-07 10:47:00,53.1,35.4,30.21,NW,318,6.0,11.0,51,0.00,,,0.00,meteohub,2013-03-07 15:47:00,
2013-03-07 10:57:00,54.1,36.3,30.21,ENE,71,1.0,11.0,51,0.00,,,0.00,meteohub,2013-03-07 15:57:00,
2013-03-07 11:02:00,54.9,36.5,30.21,North,9,5.0,9.0,50,0.00,,,0.00,meteohub,2013-03-07 16:02:00,
2013-03-07 11:07:00,54.9,36.1,30.21,North,350,0.0,9.0,49,0.00,,,0.00,meteohub,2013-03-07 16:07:00,
2013-03-07 11:12:00,55.0,36.1,30.21,North,355,2.0,9.0,49,0.00,,,0.00,meteohub,2013-03-07 16:12:00,
2013-03-07 11:17:00,55.2,36.3,30.21,NE,44,1.0,9.0,49,0.00,,,0.00,meteohub,2013-03-07 16:17:00,
2013-03-07 11:22:00,55.8,36.3,30.20,North,9,4.0,9.0,48,0.00,,,0.00,meteohub,2013-03-07 16:22:00,
2013-03-07 11:27:00,56.1,36.7,30.20,NNW,331,4.0,7.0,48,0.00,,,0.00,meteohub,2013-03-07 16:27:00,
2013-03-07 11:32:00,55.9,36.0,30.20,NNE,14,1.0,8.0,47,0.00,,,0.00,meteohub,2013-03-07 16:32:00,
2013-03-07 11:37:00,56.7,36.7,30.20,North,355,5.0,8.0,47,0.00,,,0.00,meteohub,2013-03-07 16:37:00,
2013-03-07 11:42:00,56.5,36.5,30.19,NNW,346,0.0,9.0,47,0.00,,,0.00,meteohub,2013-03-07 16:42:00,
2013-03-07 11:47:00,56.8,36.9,30.19,NNE,17,2.0,10.0,47,0.00,,,0.00,meteohub,2013-03-07 16:47:00,
2013-03-07 11:52:00,57.4,37.4,30.19,NNE,28,1.0,10.0,47,0.00,,,0.00,meteohub,2013-03-07 16:52:00,
2013-03-07 11:57:00,57.4,35.6,30.20,West,274,5.0,8.0,44,0.00,,,0.00,meteohub,2013-03-07 16:57:00,
2013-03-07 12:07:00,57.9,37.2,30.19,WNW,294,7.0,9.0,46,0.00,,,0.00,meteohub,2013-03-07 17:07:00,
2013-03-07 12:12:00,57.9,37.2,30.20,West,280,6.0,9.0,46,0.00,,,0.00,meteohub,2013-03-07 17:12:00,
2013-03-07 12:17:00,58.6,37.4,30.20,WNW,302,1.0,8.0,45,0.00,,,0.00,meteohub,2013-03-07 17:17:00,
2013-03-07 12:22:00,59.2,36.7,30.20,North,0,2.0,7.0,43,0.00,,,0.00,meteohub,2013-03-07 17:22:00,
2013-03-07 12:27:00,59.4,36.9,30.19,NW,305,5.0,9.0,43,0.00,,,0.00,meteohub,2013-03-07 17:27:00,
2013-03-07 12:32:00,58.8,37.6,30.19,North,5,1.0,10.0,45,0.00,,,0.00,meteohub,2013-03-07 17:32:00,
2013-03-07 12:37:00,59.5,37.6,30.19,NNW,329,8.0,10.0,44,0.00,,,0.00,meteohub,2013-03-07 17:37:00,
2013-03-07 12:47:00,60.3,39.9,30.19,WSW,242,9.0,10.0,47,0.00,,,0.00,meteohub,2013-03-07 17:47:00,
2013-03-07 12:52:00,59.4,40.3,30.19,WNW,285,6.0,11.0,49,0.00,,,0.00,meteohub,2013-03-07 17:52:00,
2013-03-07 12:57:00,58.8,39.7,30.18,West,280,5.0,11.0,49,0.00,,,0.00,meteohub,2013-03-07 17:57:00,
2013-03-07 13:02:00,58.3,38.7,30.18,West,264,10.0,12.0,48,0.00,,,0.00,meteohub,2013-03-07 18:02:00,
2013-03-07 13:07:00,58.3,39.2,30.17,West,273,6.0,12.0,49,0.00,,,0.00,meteohub,2013-03-07 18:07:00,
2013-03-07 13:17:00,58.5,38.3,30.17,WNW,298,7.0,13.0,47,0.00,,,0.00,meteohub,2013-03-07 18:17:00,
2013-03-07 13:22:00,58.6,38.5,30.17,West,267,8.0,14.0,47,0.00,,,0.00,meteohub,2013-03-07 18:22:00,
2013-03-07 13:27:00,58.5,38.3,30.17,WNW,300,13.0,14.0,47,0.00,,,0.00,meteohub,2013-03-07 18:27:00,
2013-03-07 13:32:00,58.8,38.7,30.17,NW,319,9.0,16.0,47,0.00,,,0.00,meteohub,2013-03-07 18:32:00,
2013-03-07 13:37:00,57.9,37.8,30.17,WNW,290,14.0,16.0,47,0.00,,,0.00,meteohub,2013-03-07 18:37:00,
2013-03-07 13:42:00,57.9,38.3,30.17,NW,306,14.0,16.0,48,0.00,,,0.00,meteohub,2013-03-07 18:42:00,
2013-03-07 13:47:00,57.7,38.1,30.17,West,281,14.0,16.0,48,0.00,,,0.00,meteohub,2013-03-07 18:47:00,
2013-03-07 13:52:00,57.6,36.9,30.17,West,278,12.0,16.0,46,0.00,,,0.00,meteohub,2013-03-07 18:52:00,
2013-03-07 14:02:00,58.5,37.8,30.16,NW,311,7.0,17.0,46,0.00,,,0.00,meteohub,2013-03-07 19:02:00,
2013-03-07 14:07:00,58.3,37.6,30.15,NW,308,11.0,15.0,46,0.00,,,0.00,meteohub,2013-03-07 19:07:00,
2013-03-07 14:12:00,58.3,37.6,30.15,WNW,295,7.0,14.0,46,0.00,,,0.00,meteohub,2013-03-07 19:12:00,
2013-03-07 14:17:00,58.5,37.8,30.15,West,270,8.0,14.0,46,0.00,,,0.00,meteohub,2013-03-07 19:17:00,
2013-03-07 14:22:00,58.5,37.2,30.14,West,275,9.0,14.0,45,0.00,,,0.00,meteohub,2013-03-07 19:22:00,
2013-03-07 14:27:00,58.3,37.0,30.15,NW,320,8.0,15.0,45,0.00,,,0.00,meteohub,2013-03-07 19:27:00,
2013-03-07 14:32:00,58.1,36.9,30.15,West,263,5.0,15.0,45,0.00,,,0.00,meteohub,2013-03-07 19:32:00,
2013-03-07 14:42:00,58.3,36.5,30.14,NW,307,7.0,14.0,44,0.00,,,0.00,meteohub,2013-03-07 19:42:00,
2013-03-07 14:47:00,57.2,36.0,30.15,NNW,329,10.0,15.0,45,0.00,,,0.00,meteohub,2013-03-07 19:47:00,
2013-03-07 14:52:00,57.4,36.7,30.15,WNW,290,10.0,17.0,46,0.00,,,0.00,meteohub,2013-03-07 19:52:00,
2013-03-07 14:57:00,57.6,36.9,30.15,WNW,289,8.0,17.0,46,0.00,,,0.00,meteohub,2013-03-07 19:57:00,
2013-03-07 15:07:00,56.7,36.1,30.15,NW,311,12.0,18.0,46,0.00,,,0.00,meteohub,2013-03-07 20:07:00,
2013-03-07 15:17:00,56.3,35.8,30.16,WNW,300,13.0,18.0,46,0.00,,,0.00,meteohub,2013-03-07 20:17:00,
2013-03-07 15:22:00,55.9,37.0,30.15,WNW,302,15.0,18.0,49,0.00,,,0.00,meteohub,2013-03-07 20:22:00,
2013-03-07 15:27:00,55.9,37.6,30.15,West,278,5.0,17.0,50,0.00,,,0.00,meteohub,2013-03-07 20:27:00,
2013-03-07 15:32:00,55.9,38.1,30.15,NW,309,6.0,17.0,51,0.00,,,0.00,meteohub,2013-03-07 20:32:00,
2013-03-07 15:37:00,56.5,39.6,30.16,WNW,293,4.0,17.0,53,0.00,,,0.00,meteohub,2013-03-07 20:37:00,
2013-03-07 15:42:00,56.1,39.2,30.16,WNW,290,13.0,15.0,53,0.00,,,0.00,meteohub,2013-03-07 20:42:00,
2013-03-07 15:47:00,55.6,40.1,30.16,WNW,294,10.0,17.0,56,0.00,,,0.00,meteohub,2013-03-07 20:47:00,
2013-03-07 15:52:00,55.8,40.3,30.16,NW,312,10.0,17.0,56,0.00,,,0.00,meteohub,2013-03-07 20:52:00,
2013-03-07 15:57:00,55.8,40.3,30.16,NW,317,10.0,17.0,56,0.00,,,0.00,meteohub,2013-03-07 20:57:00,
2013-03-07 16:02:00,55.9,40.5,30.16,NW,326,5.0,15.0,56,0.00,,,0.00,meteohub,2013-03-07 21:02:00,
2013-03-07 16:07:00,55.9,41.0,30.15,WNW,290,7.0,15.0,57,0.00,,,0.00,meteohub,2013-03-07 21:07:00,
2013-03-07 16:12:00,55.6,40.6,30.15,NW,326,5.0,14.0,57,0.00,,,0.00,meteohub,2013-03-07 21:12:00,
2013-03-07 16:17:00,55.9,41.4,30.15,NW,315,7.0,13.0,58,0.00,,,0.00,meteohub,2013-03-07 21:17:00,
2013-03-07 16:27:00,55.9,41.4,30.14,NW,316,9.0,13.0,58,0.00,,,0.00,meteohub,2013-03-07 21:27:00,
2013-03-07 16:32:00,55.9,41.9,30.14,WNW,293,6.0,13.0,59,0.00,,,0.00,meteohub,2013-03-07 21:32:00,
2013-03-07 16:37:00,56.1,41.9,30.14,NW,304,11.0,13.0,59,0.00,,,0.00,meteohub,2013-03-07 21:37:00,
2013-03-07 16:42:00,55.9,41.9,30.14,WNW,290,9.0,13.0,59,0.00,,,0.00,meteohub,2013-03-07 21:42:00,
2013-03-07 16:47:00,56.1,41.9,30.15,NW,304,6.0,13.0,59,0.00,,,0.00,meteohub,2013-03-07 21:47:00,
2013-03-07 16:52:00,55.9,42.3,30.14,NW,317,8.0,13.0,60,0.00,,,0.00,meteohub,2013-03-07 21:52:00,
2013-03-07 16:57:00,55.8,42.4,30.14,WNW,300,7.0,13.0,61,0.00,,,0.00,meteohub,2013-03-07 21:57:00,
2013-03-07 17:02:00,55.8,42.1,30.14,WNW,301,8.0,13.0,60,0.00,,,0.00,meteohub,2013-03-07 22:02:00,
2013-03-07 17:07:00,55.6,42.3,30.14,NW,309,6.0,14.0,61,0.00,,,0.00,meteohub,2013-03-07 22:07:00,
2013-03-07 17:12:00,55.2,42.4,30.14,WNW,288,10.0,14.0,62,0.00,,,0.00,meteohub,2013-03-07 22:12:00,
2013-03-07 17:17:00,55.2,42.8,30.14,WNW,301,9.0,14.0,63,0.00,,,0.00,meteohub,2013-03-07 22:17:00,
2013-03-07 17:22:00,55.0,42.3,30.14,NW,311,10.0,14.0,62,0.00,,,0.00,meteohub,2013-03-07 22:22:00,
2013-03-07 17:27:00,54.9,43.0,30.14,West,281,3.0,14.0,64,0.00,,,0.00,meteohub,2013-03-07 22:27:00,
2013-03-07 17:32:00,55.0,42.6,30.14,NW,310,6.0,14.0,63,0.00,,,0.00,meteohub,2013-03-07 22:32:00,
2013-03-07 17:42:00,54.9,43.0,30.14,NW,317,5.0,11.0,64,0.00,,,0.00,meteohub,2013-03-07 22:42:00,
2013-03-07 17:47:00,54.7,43.2,30.14,NW,317,5.0,13.0,65,0.00,,,0.00,meteohub,2013-03-07 22:47:00,
2013-03-07 17:52:00,54.7,43.5,30.14,NW,309,7.0,13.0,66,0.00,,,0.00,meteohub,2013-03-07 22:52:00,
2013-03-07 17:57:00,54.7,43.5,30.14,WNW,288,3.0,11.0,66,0.00,,,0.00,meteohub,2013-03-07 22:57:00,
2013-03-07 18:02:00,54.5,43.3,30.14,NW,326,7.0,10.0,66,0.00,,,0.00,meteohub,2013-03-07 23:02:00,
2013-03-07 18:07:00,54.1,43.3,30.14,WNW,284,4.0,10.0,67,0.00,,,0.00,meteohub,2013-03-07 23:07:00,
2013-03-07 18:12:00,54.1,43.9,30.15,WNW,302,7.0,10.0,68,0.00,,,0.00,meteohub,2013-03-07 23:12:00,
2013-03-07 18:17:00,54.0,44.1,30.15,NW,313,5.0,10.0,69,0.00,,,0.00,meteohub,2013-03-07 23:17:00,
2013-03-07 18:22:00,53.6,43.7,30.15,NW,311,5.0,11.0,69,0.00,,,0.00,meteohub,2013-03-07 23:22:00,
2013-03-07 18:32:00,53.1,43.9,30.16,WNW,302,9.0,11.0,71,0.00,,,0.00,meteohub,2013-03-07 23:32:00,
2013-03-07 18:37:00,53.1,44.2,30.16,WNW,287,4.0,12.0,72,0.00,,,0.00,meteohub,2013-03-07 23:37:00,
2013-03-07 18:42:00,52.9,44.1,30.16,WNW,295,4.0,12.0,72,0.00,,,0.00,meteohub,2013-03-07 23:42:00,
2013-03-07 18:47:00,52.5,44.1,30.16,WNW,302,4.0,12.0,73,0.00,,,0.00,meteohub,2013-03-07 23:47:00,
2013-03-07 18:52:00,52.5,44.1,30.16,NW,304,3.0,8.0,73,0.00,,,0.00,meteohub,2013-03-07 23:52:00,
2013-03-07 18:57:00,52.3,43.9,30.16,WNW,303,6.0,7.0,73,0.00,,,0.00,meteohub,2013-03-07 23:57:00,
2013-03-07 19:02:00,52.3,44.2,30.16,NW,306,2.0,7.0,74,0.00,,,0.00,meteohub,2013-03-08 00:02:00,
2013-03-07 19:07:00,52.3,44.2,30.16,NW,305,4.0,7.0,74,0.00,,,0.00,meteohub,2013-03-08 00:07:00,
2013-03-07 19:12:00,52.2,44.1,30.17,NW,305,1.0,6.0,74,0.00,,,0.00,meteohub,2013-03-08 00:12:00,
2013-03-07 19:17:00,52.2,44.4,30.17,NW,305,1.0,5.0,75,0.00,,,0.00,meteohub,2013-03-08 00:17:00,
2013-03-07 19:22:00,52.0,44.2,30.17,NW,317,2.0,5.0,75,0.00,,,0.00,meteohub,2013-03-08 00:22:00,
2013-03-07 19:27:00,51.8,44.1,30.17,NW,317,2.0,4.0,75,0.00,,,0.00,meteohub,2013-03-08 00:27:00,
2013-03-07 19:32:00,51.8,44.4,30.17,NW,313,3.0,4.0,76,0.00,,,0.00,meteohub,2013-03-08 00:32:00,
2013-03-07 19:37:00,51.6,44.2,30.17,NW,313,4.0,5.0,76,0.00,,,0.00,meteohub,2013-03-08 00:37:00,
2013-03-07 19:42:00,51.4,44.4,30.17,NW,313,3.0,5.0,77,0.00,,,0.00,meteohub,2013-03-08 00:42:00,
2013-03-07 19:47:00,51.4,44.4,30.18,NW,313,4.0,5.0,77,0.00,,,0.00,meteohub,2013-03-08 00:47:00,
2013-03-07 19:52:00,51.3,44.2,30.18,NW,314,2.0,6.0,77,0.00,,,0.00,meteohub,2013-03-08 00:52:00,
2013-03-07 19:57:00,51.3,44.6,30.18,NW,306,3.0,6.0,78,0.00,,,0.00,meteohub,2013-03-08 00:57:00,
2013-03-07 20:02:00,51.3,44.6,30.18,NW,307,3.0,6.0,78,0.00,,,0.00,meteohub,2013-03-08 01:02:00,
2013-03-07 20:07:00,51.3,45.0,30.18,NW,307,4.0,6.0,79,0.00,,,0.00,meteohub,2013-03-08 01:07:00,
2013-03-07 20:12:00,51.3,45.0,30.18,NW,308,1.0,6.0,79,0.00,,,0.00,meteohub,2013-03-08 01:12:00,
2013-03-07 20:17:00,51.3,45.0,30.17,NW,308,0.0,5.0,79,0.00,,,0.00,meteohub,2013-03-08 01:17:00,
2013-03-07 20:22:00,51.3,45.0,30.18,NW,308,1.0,4.0,79,0.00,,,0.00,meteohub,2013-03-08 01:22:00,
2013-03-07 20:27:00,51.3,45.0,30.17,NW,308,2.0,4.0,79,0.00,,,0.00,meteohub,2013-03-08 01:27:00,
2013-03-07 20:32:00,51.3,45.0,30.18,NW,308,0.0,4.0,79,0.00,,,0.00,meteohub,2013-03-08 01:32:00,
2013-03-07 20:37:00,51.3,45.3,30.18,NW,308,2.0,4.0,80,0.00,,,0.00,meteohub,2013-03-08 01:37:00,
2013-03-07 20:42:00,51.1,45.1,30.18,NW,308,3.0,4.0,80,0.00,,,0.00,meteohub,2013-03-08 01:42:00,
2013-03-07 20:47:00,51.1,45.1,30.18,NW,308,3.0,5.0,80,0.00,,,0.00,meteohub,2013-03-08 01:47:00,
2013-03-07 20:52:00,51.1,45.1,30.19,NW,308,2.0,5.0,80,0.00,,,0.00,meteohub,2013-03-08 01:52:00,
2013-03-07 20:57:00,51.1,45.1,30.18,NW,308,3.0,5.0,80,0.00,,,0.00,meteohub,2013-03-08 01:57:00,
2013-03-07 21:02:00,50.9,45.0,30.18,NW,308,1.0,4.0,80,0.00,,,0.00,meteohub,2013-03-08 02:02:00,
2013-03-07 21:07:00,50.7,45.1,30.18,NW,314,3.0,4.0,81,0.00,,,0.00,meteohub,2013-03-08 02:07:00,
2013-03-07 21:12:00,50.9,45.3,30.18,NW,313,3.0,5.0,81,0.00,,,0.00,meteohub,2013-03-08 02:12:00,
2013-03-07 21:22:00,50.7,45.1,30.18,NW,313,3.0,5.0,81,0.00,,,0.00,meteohub,2013-03-08 02:22:00,
2013-03-07 21:32:00,50.7,45.1,30.19,NW,313,4.0,5.0,81,0.00,,,0.00,meteohub,2013-03-08 02:32:00,
2013-03-07 21:37:00,50.7,45.5,30.19,NW,319,3.0,6.0,82,0.00,,,0.00,meteohub,2013-03-08 02:37:00,
2013-03-07 21:42:00,50.5,45.0,30.19,NW,319,3.0,6.0,81,0.00,,,0.00,meteohub,2013-03-08 02:42:00,
2013-03-07 21:47:00,50.5,45.3,30.19,NW,319,1.0,6.0,82,0.00,,,0.00,meteohub,2013-03-08 02:47:00,
2013-03-07 21:52:00,50.5,45.3,30.19,NW,319,0.0,5.0,82,0.00,,,0.00,meteohub,2013-03-08 02:52:00,
2013-03-07 21:57:00,50.5,45.3,30.18,NW,319,0.0,4.0,82,0.00,,,0.00,meteohub,2013-03-08 02:57:00,
2013-03-07 22:02:00,50.5,45.3,30.18,NW,319,0.0,3.0,82,0.00,,,0.00,meteohub,2013-03-08 03:02:00,
2013-03-07 22:07:00,50.4,45.1,30.18,NW,319,0.0,3.0,82,0.00,,,0.00,meteohub,2013-03-08 03:07:00,
2013-03-07 22:12:00,50.2,45.0,30.18,NW,319,0.0,0.0,82,0.00,,,0.00,meteohub,2013-03-08 03:12:00,
2013-03-07 22:17:00,50.0,44.8,30.19,NW,319,0.0,0.0,82,0.00,,,0.00,meteohub,2013-03-08 03:17:00,
2013-03-07 22:22:00,49.8,44.8,30.19,NW,319,1.0,1.0,83,0.00,,,0.00,meteohub,2013-03-08 03:22:00,
2013-03-07 22:32:00,49.6,45.0,30.19,NW,319,1.0,2.0,84,0.00,,,0.00,meteohub,2013-03-08 03:32:00,
2013-03-07 22:37:00,49.8,45.1,30.19,NW,319,0.0,2.0,84,0.00,,,0.00,meteohub,2013-03-08 03:37:00,
2013-03-07 22:42:00,49.6,45.0,30.19,NW,319,0.0,2.0,84,0.00,,,0.00,meteohub,2013-03-08 03:42:00,
2013-03-07 22:47:00,49.5,44.8,30.19,NW,319,0.0,2.0,84,0.00,,,0.00,meteohub,2013-03-08 03:47:00,
2013-03-07 22:52:00,49.6,45.3,30.19,NW,319,1.0,2.0,85,0.00,,,0.00,meteohub,2013-03-08 03:52:00,
2013-03-07 22:57:00,49.6,45.3,30.18,NW,319,0.0,2.0,85,0.00,,,0.00,meteohub,2013-03-08 03:57:00,
2013-03-07 23:07:00,49.8,45.5,30.19,NW,319,0.0,2.0,85,0.00,,,0.00,meteohub,2013-03-08 04:07:00,
2013-03-07 23:12:00,49.6,45.3,30.19,NW,319,1.0,1.0,85,0.00,,,0.00,meteohub,2013-03-08 04:12:00,
2013-03-07 23:17:00,49.8,45.5,30.19,NW,319,2.0,3.0,85,0.00,,,0.00,meteohub,2013-03-08 04:17:00,
2013-03-07 23:22:00,50.0,45.7,30.19,NW,319,0.0,3.0,85,0.00,,,0.00,meteohub,2013-03-08 04:22:00,
2013-03-07 23:27:00,49.8,45.5,30.18,NW,319,0.0,3.0,85,0.00,,,0.00,meteohub,2013-03-08 04:27:00,
2013-03-07 23:32:00,49.6,45.3,30.18,NW,319,0.0,2.0,85,0.00,,,0.00,meteohub,2013-03-08 04:32:00,
2013-03-07 23:37:00,49.5,45.1,30.19,NW,319,0.0,0.0,85,0.00,,,0.00,meteohub,2013-03-08 04:37:00,
2013-03-07 23:42:00,49.1,44.8,30.18,NW,319,0.0,0.0,85,0.00,,,0.00,meteohub,2013-03-08 04:42:00,
2013-03-07 23:52:00,48.6,44.6,30.19,NW,319,0.0,1.0,86,0.00,,,0.00,meteohub,2013-03-08 04:52:00,
2013-03-07 23:57:00,48.6,44.8,30.19,NW,319,0.0,1.0,87,0.00,,,0.00,meteohub,2013-03-08 04:57:00,